Wind_Speed
63 63 62 60 60 59 59 58 57 55 52 50 51 52 53 53 53 53 54 53 53 52 53 53 53 53 52 52 53 53 52 52 51 50 50 50 49 47
61 60 58 57 56 56 54 53 51 49 46 43 45 47 49 49 49 49 48 49 49 49 50 49 49 49 48 48 50 50 48 49 49 48 48 47 46 45
58 56 55 54 52 50 49 48 46 45 42 39 40 42 43 43 43 43 43 44 43 43 44 45 45 45 45 46 46 46 46 45 44 44 45 44 43 43
55 53 51 50 49 47 46 45 44 42 40 37 37 37 37 37 37 37 38 38 38 38 39 39 40 40 41 42 43 43 43 42 41 41 41 41 42 43
51 50 48 47 46 45 44 42 41 39 37 35 33 34 34 34 34 33 33 34 33 33 33 33 34 35 36 37 38 39 39 39 38 38 38 38 40 41
47 46 45 44 43 41 40 38 37 35 33 31 30 29 29 31 31 31 29 30 30 30 30 30 31 31 32 33 35 35 36 35 35 35 35 37 38 38
43 42 41 40 39 36 34 33 33 32 30 28 27 27 27 28 28 28 27 27 28 28 28 28 28 28 29 30 31 31 31 31 32 33 34 35 36 36
38 37 37 36 33 31 30 30 29 29 28 26 25 25 25 27 27 26 25 25 26 26 26 26 26 26 27 28 29 29 29 29 30 32 33 33 34 35
34 34 33 31 30 28 28 27 26 26 26 25 24 23 23 25 25 24 24 24 24 24 24 24 24 24 24 25 26 27 26 26 28 29 29 30 31 33
31 31 30 28 27 27 25 24 24 24 24 23 22 21 22 23 23 23 23 23 24 23 22 21 22 23 23 23 24 25 25 25 26 26 26 27 29 31
29 28 27 25 25 25 23 23 22 22 23 23 22 21 21 22 22 23 22 21 22 21 21 20 20 20 20 22 24 24 24 24 24 25 25 27 29 30
26 25 24 24 24 23 22 22 22 21 22 23 21 20 20 20 20 20 21 20 20 20 20 19 19 18 18 20 21 23 23 23 23 24 26 27 28 28
23 23 22 22 22 22 22 21 20 20 20 21 20 19 19 19 19 19 20 20 19 18 18 18 18 18 18 18 20 21 22 22 23 24 25 25 26 26
21 20 20 20 20 20 20 20 19 19 18 19 19 18 19 18 18 18 17 17 18 18 17 17 17 18 18 18 17 19 20 21 22 23 23 23 24 24
19 18 18 19 18 18 19 20 19 18 18 18 18 17 17 17 16 16 15 15 16 16 15 15 16 17 18 17 17 18 19 19 20 20 21 21 21 20
17 17 17 17 18 18 17 17 17 17 17 17 16 16 15 15 15 14 13 13 14 15 15 15 15 16 17 17 16 16 17 17 18 18 18 18 18 18
16 16 16 17 16 15 15 15 15 14 14 14 15 15 14 14 14 14 13 13 14 14 15 15 15 15 16 15 15 15 15 15 15 15 14 14 15 17
14 14 14 15 15 14 14 14 14 13 13 13 14 13 13 13 13 13 12 13 13 13 13 13 13 13 13 13 13 13 12 12 12 11 11 12 13 14
13 12 12 13 13 13 13 13 13 12 13 13 13 13 13 12 11 11 11 12 12 12 12 12 11 11 10 10 10 9 9 9 8 8 9 11 12 12
12 11 11 12 12 12 12 13 13 13 13 13 13 13 12 11 10 10 10 11 11 11 10 10 9 9 8 8 8 7 6 6 6 7 8 10 10 11
11 11 10 12 12 13 13 13 13 13 12 12 12 12 11 10 10 9 9 9 9 9 8 8 7 6 6 6 6 5 4 4 4 5 7 9 9 9
11 11 11 12 12 13 13 13 13 12 12 12 11 11 10 10 9 9 9 8 8 8 7 7 5 5 5 5 5 4 2 3 3 5 6 7 8 8
12 12 12 13 13 13 13 13 13 12 12 11 11 10 10 10 9 9 7 7 7 7 7 6 5 5 6 5 4 2 0 2 3 4 6 6 7 7
Wind_Direction
284 283 282 281 282 281 281 280 278 275 272 269 267 266 264 263 262 261 260 260 261 261 261 260 259 258 258 260 259 261 263 266 266 268 271 273 275 277
284 283 281 281 282 281 280 278 277 276 273 268 266 265 263 263 262 262 261 260 259 260 261 259 258 258 257 258 261 262 261 264 264 268 271 273 275 278
283 283 281 280 280 280 278 276 274 274 273 268 266 265 263 263 263 262 261 260 260 260 260 259 258 257 257 258 259 260 260 261 264 268 271 273 275 277
282 282 280 279 279 278 277 275 272 273 272 268 265 263 262 262 262 262 259 259 260 260 261 260 258 256 257 257 259 258 259 261 265 268 271 273 276 278
281 280 278 277 278 277 275 275 271 269 269 267 263 261 259 259 259 258 258 255 256 258 258 257 256 257 256 257 259 257 259 263 266 269 271 274 277 279
281 279 278 277 277 276 274 273 269 267 266 264 260 256 256 257 256 257 258 254 254 253 253 255 257 256 256 259 260 258 260 264 268 269 271 274 277 279
279 279 277 276 276 274 271 269 266 264 261 257 253 252 253 254 255 257 257 253 252 251 253 254 256 258 260 262 259 257 261 265 268 269 271 275 278 281
278 277 276 274 272 269 268 266 263 260 255 252 250 251 252 252 251 252 252 251 251 250 253 253 255 256 258 259 259 260 265 267 267 269 273 275 278 283
276 275 275 271 268 266 264 262 258 256 253 251 249 251 250 249 248 249 248 249 246 247 251 252 252 256 257 260 261 263 265 267 270 273 275 278 283 287
273 273 271 266 263 261 258 256 254 254 252 250 248 247 247 244 245 244 243 246 246 246 250 253 254 255 258 260 261 262 265 268 271 273 277 282 285 289
272 270 266 262 260 256 254 254 252 252 250 247 243 241 241 241 242 241 241 243 242 244 249 256 258 258 260 262 263 265 265 268 272 275 278 284 289 291
270 266 262 260 258 254 254 255 252 250 247 242 241 240 238 239 240 242 242 241 240 243 250 256 260 262 264 266 266 266 267 269 273 278 282 286 290 292
268 264 261 258 255 253 253 252 248 244 241 237 238 238 238 238 240 244 243 242 244 246 252 256 259 264 268 271 270 268 269 270 275 280 283 286 290 294
264 262 258 256 257 255 250 243 241 238 235 236 235 237 237 236 237 237 237 240 244 248 253 257 261 266 269 272 271 269 270 271 275 280 283 288 292 295
263 262 260 258 256 252 247 239 236 234 233 234 235 235 234 231 229 227 232 239 246 247 251 259 260 264 266 268 269 269 271 275 278 282 287 292 296 298
263 262 259 258 253 250 242 235 234 233 234 234 232 227 226 223 221 223 233 242 244 247 255 261 261 264 266 267 267 268 273 279 284 288 293 298 298 301
261 259 257 254 249 242 232 228 227 225 226 229 223 216 217 219 221 227 239 243 245 251 257 262 266 270 269 268 267 271 276 282 287 291 296 299 302 308
257 255 251 245 240 229 221 219 216 217 220 220 214 212 214 218 225 235 242 244 246 250 255 260 265 267 266 266 268 272 275 282 286 291 300 306 311 315
249 248 244 237 228 219 217 213 209 210 212 210 206 207 213 218 228 236 239 241 243 246 251 256 261 264 264 264 262 263 272 280 287 296 306 315 319 320
239 239 233 224 217 213 210 207 206 205 205 207 207 209 212 218 226 230 234 238 240 245 251 255 257 258 257 253 246 252 266 282 291 300 313 323 327 328
230 229 222 215 212 206 202 202 201 200 202 204 205 208 212 218 219 223 227 230 236 241 248 248 249 250 247 237 229 236 262 290 302 314 327 334 338 342
222 221 214 207 203 197 196 196 197 197 198 200 203 205 208 211 214 219 224 230 231 233 235 237 240 237 222 210 209 218 264 310 326 336 343 348 353 358
217 214 212 206 197 194 197 196 194 194 195 198 201 202 204 206 209 214 219 226 227 225 225 226 222 201 185 181 183 185 272 353 357 358 359 3 8 13
Height
5573 5570 5567 5566 5563 5561 5559 5557 5556 5559 5565 5565 5564 5563 5563 5565 5568 5571 5575 5578 5581 5584 5587 5590 5594 5597 5601 5604 5606 5608 5610 5611 5613 5613 5613 5613 5613 5612
5555 5553 5551 5549 5547 5545 5544 5542 5541 5541 5546 5550 5549 5548 5549 5551 5553 5557 5560 5563 5567 5570 5573 5576 5579 5583 5587 5590 5592 5594 5597 5599 5600 5600 5601 5601 5601 5600
5539 5537 5536 5534 5533 5531 5530 5529 5529 5528 5531 5536 5536 5536 5537 5539 5542 5545 5548 5550 5554 5557 5561 5564 5567 5571 5574 5578 5580 5583 5585 5587 5588 5589 5589 5590 5590 5589
5524 5523 5521 5520 5519 5518 5517 5517 5517 5517 5518 5522 5524 5525 5527 5529 5532 5534 5537 5540 5543 5547 5550 5553 5556 5560 5564 5566 5569 5571 5574 5576 5577 5578 5579 5579 5579 5578
5510 5509 5508 5507 5507 5506 5505 5505 5505 5506 5507 5510 5513 5515 5517 5520 5523 5526 5529 5532 5535 5538 5541 5544 5548 5551 5554 5556 5559 5561 5564 5566 5567 5568 5568 5568 5568 5567
5497 5496 5495 5494 5494 5494 5494 5494 5495 5496 5498 5500 5503 5506 5509 5512 5515 5518 5521 5524 5527 5530 5533 5536 5539 5542 5545 5547 5550 5552 5554 5556 5557 5558 5558 5559 5558 5557
5485 5484 5483 5483 5483 5483 5484 5485 5486 5488 5489 5492 5495 5498 5501 5504 5508 5511 5514 5518 5521 5523 5526 5529 5532 5534 5536 5538 5541 5543 5545 5546 5548 5549 5549 5549 5549 5548
5474 5474 5473 5473 5473 5474 5475 5477 5478 5480 5483 5485 5488 5491 5495 5498 5501 5504 5508 5511 5514 5518 5520 5523 5525 5528 5530 5531 5533 5535 5536 5538 5539 5540 5541 5541 5540 5539
5464 5464 5464 5465 5465 5467 5469 5470 5472 5473 5476 5479 5482 5485 5489 5492 5495 5498 5501 5505 5508 5511 5515 5517 5519 5521 5523 5524 5526 5527 5529 5530 5532 5533 5533 5532 5532 5530
5456 5456 5457 5458 5459 5460 5462 5464 5466 5468 5470 5473 5476 5480 5483 5486 5489 5493 5496 5499 5502 5505 5508 5511 5513 5515 5517 5519 5520 5521 5522 5524 5525 5526 5526 5525 5524 5523
5449 5449 5450 5451 5453 5454 5456 5459 5461 5463 5465 5467 5470 5474 5477 5480 5483 5487 5491 5494 5497 5501 5503 5506 5508 5510 5512 5513 5514 5515 5516 5518 5519 5519 5519 5518 5517 5515
5442 5443 5444 5445 5447 5448 5450 5453 5455 5458 5459 5462 5466 5469 5472 5475 5478 5482 5486 5490 5493 5496 5499 5501 5503 5505 5507 5509 5509 5510 5511 5512 5512 5512 5512 5511 5510 5508
5436 5438 5439 5440 5441 5443 5445 5447 5450 5452 5454 5458 5461 5464 5468 5471 5475 5478 5482 5485 5489 5492 5494 5496 5499 5500 5502 5503 5504 5504 5505 5506 5506 5506 5505 5504 5502 5500
5431 5432 5433 5434 5436 5437 5440 5442 5444 5447 5450 5453 5456 5460 5464 5468 5471 5474 5478 5481 5484 5487 5489 5491 5493 5495 5496 5497 5498 5499 5499 5499 5499 5499 5498 5497 5495 5493
5426 5427 5428 5430 5431 5433 5436 5438 5440 5443 5446 5450 5453 5457 5460 5464 5467 5471 5474 5477 5480 5482 5484 5486 5488 5489 5490 5491 5492 5493 5494 5494 5493 5493 5492 5491 5489 5487
5421 5423 5424 5425 5427 5429 5432 5434 5437 5440 5443 5446 5450 5453 5456 5460 5464 5467 5470 5473 5476 5478 5480 5482 5483 5484 5485 5486 5487 5488 5488 5489 5488 5488 5486 5485 5483 5481
5418 5419 5420 5422 5423 5425 5428 5431 5434 5437 5440 5443 5447 5450 5454 5458 5461 5464 5467 5470 5472 5475 5476 5478 5479 5480 5481 5481 5482 5483 5484 5484 5483 5482 5481 5480 5479 5477
5415 5416 5417 5418 5420 5423 5426 5429 5432 5435 5438 5442 5445 5448 5452 5455 5459 5462 5464 5467 5469 5470 5472 5474 5475 5476 5477 5477 5478 5479 5479 5479 5479 5478 5478 5477 5475 5473
5412 5413 5415 5417 5419 5421 5424 5427 5431 5434 5437 5440 5444 5447 5450 5454 5456 5459 5461 5463 5465 5467 5468 5470 5471 5472 5473 5474 5475 5475 5476 5476 5476 5475 5475 5473 5472 5470
5409 5411 5413 5415 5418 5420 5423 5426 5429 5433 5436 5439 5442 5445 5448 5451 5454 5456 5458 5460 5462 5464 5465 5466 5467 5468 5469 5471 5472 5472 5473 5473 5473 5473 5472 5471 5469 5467
5408 5409 5411 5414 5416 5419 5422 5425 5428 5432 5434 5437 5440 5444 5446 5449 5451 5454 5456 5458 5459 5461 5462 5463 5464 5465 5466 5468 5469 5470 5471 5471 5471 5471 5470 5468 5467 5466
5406 5408 5410 5412 5415 5418 5421 5424 5427 5430 5433 5436 5439 5442 5445 5447 5450 5452 5454 5456 5457 5459 5460 5461 5462 5463 5465 5466 5468 5469 5470 5470 5470 5469 5468 5468 5466 5465
5403 5406 5409 5411 5414 5417 5420 5423 5426 5429 5432 5435 5438 5441 5444 5446 5448 5450 5452 5454 5455 5457 5458 5459 5461 5462 5463 5465 5467 5468 5469 5469 5469 5469 5468 5467 5466 5465